Location: Drignac
(45.1667°N, 2.0333°E)
Time: 13:43:07
(UTC+00:00)

HJ-1C - Visible Passes

Search period start: 06 August 2020 00:00
Search period end: 16 August 2020 00:00
Orbit: 432 x 445 km, 97.2° (Epoch: 06 August)

Date Brightness Start Highest point End Pass type
(mag) Time Alt. Az. Time Alt. Az. Time Alt. Az.
06 Aug 6.3 19:47:32 10° SW 19:49:52 18° W 19:52:13 10° NW visible
08 Aug 6.7 20:04:40 10° WSW 20:05:49 11° W 20:06:57 10° WNW visible
11 Aug 6.1 19:40:26 10° SW 19:43:03 21° W 19:45:40 10° NW visible
13 Aug 6.5 19:57:09 10° SW 19:58:55 14° W 20:00:43 10° WNW visible
